Location: *
(31.2983°S, 151.4094°E)
Time: 12:03:31
(UTC+00:00)

MOS 1-B - Pass Details

Date: 25 August 2019
Orbit: 905 x 914 km, 99.4° (Epoch: 15 September)

Event Time Altitude Azimuth Distance (km) Brightness Sun altitude
Rises 17:59:06 0° 15° (NNE) 3,523 7.5 -30.5°
Reaches altitude 10° 18:01:29 10° 15° (NNE) 2,590 6.8 -30.0°
Maximum altitude 18:07:16 89° 297° (WNW) 923 4.2 -28.8°
Enters shadow 18:07:48 76° 197° (SSW) 950 4.3 -28.7°
Exits shadow 18:12:54 11° 194° (SSW) 2,524 6.6 -27.6°
Drops below altitude 10° 18:13:10 10° 194° (SSW) 2,626 6.7 -27.5°
Sets 18:15:36 0° 193° (SSW) 3,576 7.4 -27.0°
